This is the latest recevied weather packets stored in our database for station/object W6JCZ-13. If no packets are shown the sender has not sent any weather packets the latest 10 day(s).
| Time | Temp. | Humidity | Pressure | Rain* | Wind** | Luminosity | Snow |
|---|---|---|---|---|---|---|---|
| 1787998219 | 15° C | 76% | 1010.4 hPa | 0 mm | - | - | - |
| 1787997616 | 15.56° C | 75% | 1010.2 hPa | 0 mm | - | - | - |
| 1787997018 | 15.56° C | 74% | 1010.1 hPa | 0 mm | - | - | - |
| 1787996418 | 15.56° C | 74% | 1010.1 hPa | 0 mm | - | - | - |
| 1787995818 | 16.11° C | 74% | 1010.1 hPa | 0 mm | - | - | - |
| 1787995218 | 16.11° C | 74% | 1010.3 hPa | 0 mm | - | - | - |
| 1787994618 | 16.11° C | 74% | 1010.4 hPa | 0 mm | - | - | - |
| 1787994018 | 16.11° C | 74% | 1010.4 hPa | 0 mm | - | - | - |
| 1787993418 | 16.11° C | 75% | 1010.5 hPa | 0 mm | - | - | - |
| 1787992818 | 16.11° C | 75% | 1010.6 hPa | 0 mm | - | - | - |
| 1787992217 | 15.56° C | 76% | 1010.6 hPa | 0 mm | - | - | - |
| 1787991617 | 15.56° C | 77% | 1010.7 hPa | 0 mm | - | - | - |
| 1787991018 | 15.56° C | 77% | 1010.7 hPa | 0 mm | - | - | - |
| 1787990428 | 15.56° C | 77% | 1010.8 hPa | 0 mm | - | - | - |
| 1787989818 | 16.11° C | 76% | 1010.8 hPa | 0 mm | - | - | - |
| 1787989217 | 16.11° C | 76% | 1010.6 hPa | 0 mm | - | - | - |
| 1787988617 | 16.11° C | 76% | 1010.6 hPa | 0 mm | - | - | - |
| 1787988017 | 16.67° C | 76% | 1010.7 hPa | 0 mm | - | - | - |
| 1787987418 | 16.67° C | 74% | 1010.7 hPa | 0 mm | - | - | - |
| 1787986817 | 16.67° C | 75% | 1010.5 hPa | 0 mm | - | - | - |
| 1787986216 | 17.22° C | 74% | 1010.6 hPa | 0 mm | - | - | - |
| 1787985616 | 17.22° C | 74% | 1010.6 hPa | 0 mm | - | - | - |
| 1787985016 | 17.22° C | 73% | 1010.6 hPa | 0 mm | - | - | - |
| 1787984416 | 17.78° C | 72% | 1010.6 hPa | 0 mm | - | - | - |
| 1787983816 | 17.78° C | 70% | 1010.7 hPa | 0 mm | - | - | - |
* Rain latest hour (hover to see other rain measurements)
** Current wind speed in m/s (hover to see current wind gust speed)